Location: Julian California
(33.0790°N, 116.6010°W)
Time: 04:51:27
(UTC-07:00)

Cosmos 1805 Rocket - Pass Details

Date: 12 July 2018
Orbit: 606 x 630 km, 82.5° (Epoch: 22 September)

Event Time Altitude Azimuth Distance (km) Brightness Sun altitude
Exits shadow 22:37:57 52° 268° (W) 778 4.1 -26.4°
Maximum altitude 22:38:08 52° 278° (W) 774 4.2 -26.5°
Drops below altitude 10° 22:42:29 10° 356° (N) 2,007 6.9 -27.0°
Sets 22:44:47 0° 1° (N) 2,920 7.8 -27.2°
